McKinney, TX

10:46 PM CST on January 23, 2018 (GMT -0600)
Collin County Regional

Weather History for KTKI - March, 2014

Change the Weather History Date:

Monday, March 10, 2014

  Actual Average (KADS) Record (KADS)
Temperature  
Mean Temperature 55 °F -  
Max Temperature 77 °F 61 °F 84 °F (2006)
Min Temperature 35 °F 45 °F 23 °F (1998)
Degree Days  
Heating Degree Days 10    
Growing Degree Days 5 (Base 50)    
Moisture  
Dew Point 40 °F    
Average Humidity 76    
Maximum Humidity 100    
Minimum Humidity 24    
Precipitation  
Precipitation 0.00 in - - ()
Sea Level Pressure  
Sea Level Pressure 30.08 in    
Wind  
Wind Speed 4 mph (South)    
Max Wind Speed 15 mph    
Max Gust Speed 20 mph    
Visibility 5 miles    
Events Fog    
Averages and records for this station are not official NWS values.
T = Trace of Precipitation, MM = Missing Value Source: NWS Daily Summary

Daily Weather History Graph

Daily Weather History Graph

Search for Another Location

Airport or City:

Trip Planner

Search our weather history database for the weather conditions in past years. The results will help you decide how hot, cold, wet, or windy it might be!

Date:

Astronomy

Mar. 10, 2014 Rise Set
Actual Time 7:43 AM CDT 7:30 PM CDT
Civil Twilight 7:18 AM CDT 7:55 PM CDT
Nautical Twilight 6:49 AM CDT 8:23 PM CDT
Astronomical Twilight 6:21 AM CDT 8:52 PM CDT
Moon 2:27 PM CDT (3/10) 3:43 AM CDT (3/10)
Length of Visible Light 12h 36m
Length of Day
11h 47m
Waxing Gibbous, 70% of the Moon is Illuminated
Mar 10
Waxing Gibbous
Mar 16
Full
Mar 23
Last Quarter
Mar 30
New
Apr 7
First Quarter

Hourly Weather History & Observations

Time (CDT) Temp. Windchill Dew Point Humidity Pressure Visibility Wind Dir Wind Speed Gust Speed Precip Events Conditions
12:53 AM 42.1 °F - 39.0 °F 89% 30.21 in 7.0 mi Calm Calm - N/A   Clear
1:53 AM 41.0 °F 39.0 °F 37.9 °F 89% 30.21 in 5.0 mi SSE 3.5 mph - N/A   Clear
2:53 AM 39.9 °F - 37.9 °F 93% 30.20 in 5.0 mi Calm Calm - N/A   Clear
3:53 AM 39.9 °F - 37.9 °F 93% 30.18 in 3.0 mi Calm Calm - N/A   Clear
4:04 AM 41.0 °F - 39.2 °F 93% 30.14 in 2.5 mi Calm Calm - N/A   Clear
4:15 AM 41.0 °F - 39.2 °F 93% 30.14 in 3.0 mi Calm Calm - N/A   Clear
4:37 AM 39.2 °F - 39.2 °F 100% 30.14 in 2.5 mi Calm Calm - N/A   Clear
4:53 AM 39.9 °F 37.8 °F 37.9 °F 93% 30.16 in 3.0 mi SSE 3.5 mph - N/A   Clear
4:56 AM 39.2 °F - 37.4 °F 93% 30.14 in 1.8 mi Calm Calm - N/A   Clear
5:16 AM 39.2 °F - 37.4 °F 93% 30.13 in 0.5 mi Calm Calm - N/A Fog Fog
5:27 AM 37.4 °F 34.9 °F 35.6 °F 93% 30.13 in 1.2 mi South 3.5 mph - N/A   Partly Cloudy
5:32 AM 37.4 °F 34.9 °F 35.6 °F 93% 30.13 in 3.0 mi South 3.5 mph - N/A   Partly Cloudy
5:50 AM 37.4 °F 34.9 °F 37.4 °F 100% 30.13 in 1.8 mi South 3.5 mph - N/A   Partly Cloudy
5:53 AM 37.9 °F 34.4 °F 37.0 °F 97% 30.16 in 5.0 mi South 4.6 mph - N/A   Scattered Clouds
5:57 AM 37.4 °F 33.8 °F 37.4 °F 100% 30.13 in 0.2 mi South 4.6 mph - N/A Fog Fog
6:06 AM 37.4 °F - 35.6 °F 93% 30.12 in 5.0 mi Calm Calm - N/A   Scattered Clouds
6:53 AM 36.0 °F 32.1 °F 35.1 °F 97% 30.16 in 3.0 mi South 4.6 mph - N/A   Clear
7:21 AM 35.6 °F 32.8 °F 35.6 °F 100% 30.12 in 2.0 mi SSE 3.5 mph - N/A   Clear
7:53 AM 36.0 °F 32.1 °F 35.1 °F 97% 30.16 in 1.0 mi South 4.6 mph - N/A   Clear
7:56 AM 35.6 °F 31.7 °F 35.6 °F 100% 30.13 in 0.2 mi South 4.6 mph - N/A Fog Fog
8:06 AM 35.6 °F 31.7 °F 35.6 °F 100% 30.13 in 0.8 mi South 4.6 mph - N/A Fog Shallow Fog
8:16 AM 37.4 °F 34.9 °F 37.4 °F 100% 30.13 in 2.0 mi South 3.5 mph - N/A Fog Shallow Fog
8:44 AM 41.0 °F - 39.2 °F 93% 30.13 in 3.0 mi Calm Calm - N/A   Clear
8:53 AM 42.1 °F 40.2 °F 42.1 °F 100% 30.17 in 3.0 mi South 3.5 mph - N/A   Clear
9:53 AM 54.0 °F - 46.0 °F 75% 30.15 in 5.0 mi South 4.6 mph - N/A   Haze
10:53 AM 62.1 °F - 44.1 °F 52% 30.14 in 10.0 mi SW 11.5 mph - N/A   Clear
11:53 AM 66.9 °F - 39.9 °F 37% 30.11 in 10.0 mi WSW 12.7 mph - N/A   Clear
12:53 PM 70.0 °F - 37.9 °F 31% 30.07 in 10.0 mi SSW 11.5 mph - N/A   Clear
1:53 PM 72.0 °F - 35.1 °F 26% 30.04 in 10.0 mi SW 9.2 mph - N/A   Clear
2:53 PM 75.0 °F - 36.0 °F 24% 29.98 in 10.0 mi South 10.4 mph - N/A   Clear
3:53 PM 75.9 °F - 37.9 °F 25% 29.94 in 10.0 mi South 15.0 mph - N/A   Clear
4:53 PM 75.9 °F - 39.0 °F 26% 29.91 in 10.0 mi SSE 12.7 mph 19.6 mph N/A   Clear
5:53 PM 75.0 °F - 39.0 °F 27% 29.89 in 10.0 mi South 11.5 mph - N/A   Clear
6:53 PM 72.0 °F - 44.1 °F 37% 29.89 in 10.0 mi SSE 13.8 mph - N/A   Clear
7:53 PM 66.9 °F - 45.0 °F 45% 29.90 in 10.0 mi SSE 12.7 mph - N/A   Clear
8:53 PM 66.0 °F - 48.0 °F 52% 29.90 in 10.0 mi South 12.7 mph - N/A   Clear
9:53 PM 64.0 °F - 52.0 °F 65% 29.90 in 10.0 mi South 11.5 mph - N/A   Clear
10:53 PM 64.9 °F - 55.0 °F 70% 29.88 in 10.0 mi South 12.7 mph - N/A   Clear
11:53 PM 63.0 °F - 55.0 °F 75% 29.86 in 10.0 mi South 12.7 mph - N/A   Clear